Regional Weather Roundup
Issued by NWS Cleveland, OH

Home | Current Version | Previous Version | Graphics & Text | Print | Product List | Glossary On
Versions: 1 2 3 4 5 6 7 8 9 10 11 12 13 14 15 16 17 18 19 20 21 22 23 24 25 26 27 28 29 30 31 32 33 34 35 36 37 38 39 40 41 42 43 44 45 46 47 48 49 50
000
ASUS41 KCLE 261412
RWRCLE
OHIO REGIONAL WEATHER ROUNDUP
NATIONAL WEATHER SERVICE WILMINGTON, OH
1000 AM EDT WED JUL 26 2017

NOTE: "FAIR" INDICATES FEW OR NO CLOUDS BELOW 12,000 FEET WITH NO
SIGNIFICANT WEATHER AND/OR OBSTRUCTIONS TO VISIBILITY.

OHZ001>008-015>018-024>027-034-035-043-044-261500-
   NORTHWEST OHIO

CITY           SKY/WX    TMP DP  RH WIND       PRES   REMARKS
DEFIANCE       FAIR     N/A N/A N/A SW6       30.17F
FINDLAY        FAIR      71  61  70 S7        30.18S
TOLEDO EXPRESS FAIR      70  63  78 S6        30.16F
TOLEDO EXEC    FAIR      71  63  75 SW6       30.18F
LIMA           FAIR      69  61  75 VRB5      30.18F
$$

OHZ009>014-019>023-028>033-038-089-261500-
   NORTHEAST OHIO

CITY           SKY/WX    TMP DP  RH WIND       PRES   REMARKS
CLE-HOPKINS    PTSUNNY   73  62  68 SW5       30.20S
CLE-LAKEFRONT  FAIR      73  60  63 SW5       30.17S
CUY CO. ARPT   MOSUNNY   73  59  60 SW7       30.19S
LORAIN-ELYRIA  FAIR      70  59  68 W6        30.19S
ASHTABULA      FAIR      68  61  78 SW3       30.21R
AKRON-CANTON   FAIR      71  58  63 CALM      30.19S
WOOSTER        FAIR      70  62  76 W3        30.21R
MANSFIELD      FAIR      71  58  63 CALM      30.20R
YOUNGSTOWN     FAIR      70  60  70 SW3       30.21R
$$

OHZ042-051>053-060>062-070>072-077>081-261500-
  SOUTHWEST OHIO

CITY           SKY/WX    TMP DP  RH WIND       PRES   REMARKS
CINC-COVINGTON FAIR      72  64  76 VRB5      30.16F
CINC-LUNKEN    FAIR      70  65  84 CALM      30.17F
HAMILTON       FAIR      72  64  76 CALM      30.18S
DAYTON         FAIR      69  59  70 S8        30.18S
WRIGHT-PAT AFB FAIR      70  60  71 SE6       30.18S
DAYTON GENERAL FAIR      70  59  68 CALM      30.17S
WILMINGTON     FAIR      68  63  84 CALM      30.18S
$$

OHZ036-037-039>041-045>050-054>059-063>069-073>076-082>088-261500-
  CENTRAL AND SOUTHEAST OHIO

CITY           SKY/WX    TMP DP  RH WIND       PRES   REMARKS
COLUMBUS       FAIR      71  61  70 E6        30.18S
OSU AIRPORT    FAIR      70  62  76 VRB3      30.18S
BOLTON FIELD   SUNNY     70  63  78 S3        30.19S
RICKENBACK AFB FAIR      68  63  84 CALM      30.18F
NEWARK         FAIR      69  62  78 CALM      30.18F
MARION         FAIR      70  60  70 SW3       30.19S
LANCASTER      FAIR      68  64  87 NE3       30.18F
ZANESVILLE     FAIR      70  61  73 E3        30.19S
NEW PHILLY     FAIR      68  63  84 CALM      30.19S
$$



USA.gov is the U.S. government's official web portal to all federal, state and local government web resources and services.